EJU38UG LFBD-LEPA

Flight info

Callsign EJU38UG
Flight time 1h 4m
Altitude 37000
Route OBLOC DCT SECHE DCT AGN DCT TOU DCT LOMRA DCT ROCAN DCT IBRAP DCT LUKEV DCT LORES
Aircraft A319/M-SDE2E3FGIJ1RWXYZ/LB1

Departure

Time 2026-05-01 10:24
Airport Bordeaux–Mérignac Airport (LFBD)

Arrival

Time 2026-05-01 11:29
Airport Palma de Mallorca Airport (LEPA)
Time Latitude Longitude Altitude Speed Heading
2026-05-01 09:46 44.82861 -0.69975 169 ft 0 kts 17°
2026-05-01 10:16 44.82822 -0.69985 169 ft 4 kts 355°
2026-05-01 10:17 44.82799 -0.69978 169 ft 1 kts 333°
2026-05-01 10:17 44.82795 -0.69974 169 ft 0 kts 333°
2026-05-01 10:19 44.82800 -0.69984 169 ft 3 kts 311°
2026-05-01 10:19 44.82814 -0.70034 170 ft 8 kts 285°
2026-05-01 10:20 44.82792 -0.70220 170 ft 11 kts 259°
2026-05-01 10:20 44.82814 -0.70338 170 ft 15 kts 287°
2026-05-01 10:20 44.82853 -0.70520 170 ft 22 kts 286°
2026-05-01 10:20 44.82897 -0.70732 170 ft 23 kts 286°
2026-05-01 10:21 44.82932 -0.70901 170 ft 12 kts 286°
2026-05-01 10:21 44.83049 -0.70825 169 ft 14 kts 45°
2026-05-01 10:21 44.83127 -0.70711 168 ft 18 kts 45°
2026-05-01 10:22 44.83344 -0.70402 165 ft 24 kts 45°
2026-05-01 10:22 44.83591 -0.70053 162 ft 23 kts 45°
2026-05-01 10:23 44.83707 -0.70034 161 ft 17 kts 335°
2026-05-01 10:23 44.83822 -0.70173 161 ft 9 kts 224°
2026-05-01 10:23 44.83773 -0.70239 161 ft 10 kts 225°
2026-05-01 10:24 44.83342 -0.70855 169 ft 110 kts 225°
2026-05-01 10:24 44.81869 -0.73023 886 ft 167 kts 223°
2026-05-01 10:25 44.80158 -0.75457 2249 ft 190 kts 221°
2026-05-01 10:25 44.78067 -0.78385 3308 ft 228 kts 223°
2026-05-01 10:26 44.76823 -0.79773 4283 ft 227 kts 206°
2026-05-01 10:26 44.75346 -0.80504 5336 ft 225 kts 189°
2026-05-01 10:26 44.72561 -0.79190 7316 ft 224 kts 129°
2026-05-01 10:27 44.70741 -0.75280 8607 ft 255 kts 125°
2026-05-01 10:27 44.68676 -0.70755 9900 ft 287 kts 125°
2026-05-01 10:28 44.67595 -0.68350 10600 ft 301 kts 123°
2026-05-01 10:28 44.66230 -0.62425 11722 ft 335 kts 97°
2026-05-01 10:28 44.66244 -0.59122 12480 ft 344 kts 88°
2026-05-01 10:29 44.66489 -0.52078 13502 ft 370 kts 89°
2026-05-01 10:29 44.66608 -0.48446 14229 ft 375 kts 89°
2026-05-01 10:30 44.66854 -0.41055 15613 ft 382 kts 89°
2026-05-01 10:30 44.67102 -0.33529 17010 ft 389 kts 89°
2026-05-01 10:31 44.67354 -0.25912 18354 ft 397 kts 89°
2026-05-01 10:31 44.67498 -0.18045 19544 ft 403 kts 96°
2026-05-01 10:32 44.66009 -0.10540 20715 ft 405 kts 118°
2026-05-01 10:32 44.64749 -0.06994 21284 ft 408 kts 118°
2026-05-01 10:32 44.62199 0.00189 22412 ft 414 kts 118°
2026-05-01 10:33 44.59620 0.07474 23456 ft 420 kts 118°
2026-05-01 10:33 44.57000 0.14878 24367 ft 426 kts 118°
2026-05-01 10:34 44.55650 0.18588 24783 ft 427 kts 122°
2026-05-01 10:34 44.53834 0.21871 25176 ft 427 kts 136°
2026-05-01 10:34 44.51735 0.24838 25598 ft 430 kts 136°
2026-05-01 10:35 44.47480 0.30779 26429 ft 434 kts 136°
2026-05-01 10:35 44.45331 0.33767 26839 ft 437 kts 136°
2026-05-01 10:35 44.43174 0.36775 27227 ft 439 kts 136°
2026-05-01 10:35 44.41009 0.39793 27617 ft 441 kts 136°
2026-05-01 10:36 44.36641 0.45888 28363 ft 445 kts 136°
2026-05-01 10:36 44.34459 0.48979 28708 ft 448 kts 135°
2026-05-01 10:36 44.32278 0.52106 29058 ft 451 kts 135°
2026-05-01 10:37 44.30095 0.55252 29393 ft 453 kts 135°
2026-05-01 10:37 44.25686 0.61591 30205 ft 455 kts 135°
2026-05-01 10:37 44.23484 0.64742 30655 ft 454 kts 135°
2026-05-01 10:38 44.21279 0.67885 31078 ft 453 kts 136°
2026-05-01 10:38 44.19073 0.71018 31480 ft 453 kts 136°
2026-05-01 10:38 44.16865 0.74152 31881 ft 453 kts 136°
2026-05-01 10:38 44.14658 0.77280 32283 ft 452 kts 136°
2026-05-01 10:39 44.12451 0.80406 32687 ft 452 kts 136°
2026-05-01 10:39 44.10249 0.83519 33076 ft 452 kts 136°
2026-05-01 10:39 44.08043 0.86632 33465 ft 452 kts 137°
2026-05-01 10:39 44.05863 0.89707 33872 ft 452 kts 137°
2026-05-01 10:40 44.03655 0.92820 34270 ft 452 kts 137°
2026-05-01 10:40 44.01448 0.95929 34624 ft 452 kts 137°
2026-05-01 10:40 43.99244 0.99031 34972 ft 451 kts 137°
2026-05-01 10:40 43.97038 1.02132 35305 ft 451 kts 137°
2026-05-01 10:41 43.94831 1.05232 35620 ft 451 kts 137°
2026-05-01 10:41 43.92624 1.08330 35924 ft 451 kts 137°
2026-05-01 10:41 43.88202 1.14517 36537 ft 452 kts 137°
2026-05-01 10:42 43.86703 1.16609 36739 ft 452 kts 137°
2026-05-01 10:42 43.84493 1.19696 37028 ft 452 kts 137°
2026-05-01 10:42 43.82278 1.22784 37199 ft 452 kts 137°
2026-05-01 10:43 43.77837 1.28957 37235 ft 452 kts 137°
2026-05-01 10:43 43.73397 1.35127 37249 ft 452 kts 137°
2026-05-01 10:44 43.68948 1.41284 37247 ft 453 kts 137°
2026-05-01 10:44 43.64500 1.47381 37246 ft 453 kts 138°
2026-05-01 10:45 43.60018 1.53503 37237 ft 454 kts 138°
2026-05-01 10:45 43.55502 1.59669 37226 ft 454 kts 138°
2026-05-01 10:46 43.51043 1.65754 37221 ft 454 kts 138°
2026-05-01 10:46 43.46519 1.71917 37212 ft 455 kts 138°
2026-05-01 10:47 43.42009 1.78034 37204 ft 456 kts 138°
2026-05-01 10:47 43.37444 1.83977 37203 ft 453 kts 146°
2026-05-01 10:48 43.31934 1.87905 37211 ft 444 kts 167°
2026-05-01 10:48 43.25900 1.89114 37212 ft 438 kts 179°
2026-05-01 10:49 43.19804 1.89686 37211 ft 439 kts 179°
2026-05-01 10:49 43.13695 1.90277 37211 ft 440 kts 179°
2026-05-01 10:50 43.07581 1.90868 37212 ft 441 kts 180°
2026-05-01 10:50 43.01458 1.91446 37210 ft 441 kts 180°
2026-05-01 10:51 42.95334 1.92020 37209 ft 441 kts 180°
2026-05-01 10:51 42.89197 1.92598 37201 ft 443 kts 180°
2026-05-01 10:52 42.83039 1.93185 37205 ft 444 kts 180°
2026-05-01 10:52 42.76854 1.93761 37235 ft 446 kts 180°
2026-05-01 10:53 42.70650 1.94346 37244 ft 447 kts 180°
2026-05-01 10:53 42.64486 1.95678 37250 ft 453 kts 169°
2026-05-01 10:54 42.58383 1.97899 37250 ft 452 kts 170°
2026-05-01 10:54 42.52270 2.00090 37256 ft 455 kts 170°
2026-05-01 10:55 42.46154 2.02289 37276 ft 454 kts 170°
2026-05-01 10:55 42.40021 2.04497 37259 ft 456 kts 170°
2026-05-01 10:56 42.33913 2.06668 37272 ft 454 kts 171°
2026-05-01 10:56 42.27789 2.08832 37282 ft 455 kts 171°
2026-05-01 10:57 42.21664 2.11006 37271 ft 455 kts 171°
2026-05-01 10:57 42.15531 2.13180 37285 ft 456 kts 171°
2026-05-01 10:58 42.09401 2.15351 37275 ft 456 kts 171°
2026-05-01 10:58 42.03264 2.17514 37266 ft 456 kts 171°
2026-05-01 10:59 41.97116 2.19676 37276 ft 457 kts 171°
2026-05-01 10:59 41.91004 2.21818 37269 ft 457 kts 171°
2026-05-01 11:00 41.84840 2.23974 37269 ft 458 kts 172°
2026-05-01 11:00 41.78676 2.26131 37258 ft 458 kts 172°
2026-05-01 11:01 41.72506 2.28292 37254 ft 459 kts 172°
2026-05-01 11:01 41.66330 2.30455 37248 ft 459 kts 172°
2026-05-01 11:02 41.60141 2.32603 37249 ft 459 kts 172°
2026-05-01 11:02 41.53944 2.34761 37253 ft 459 kts 172°
2026-05-01 11:03 41.47754 2.36903 37249 ft 460 kts 172°
2026-05-01 11:03 41.41556 2.39041 37248 ft 460 kts 172°
2026-05-01 11:04 41.35351 2.41186 37244 ft 461 kts 172°
2026-05-01 11:04 41.29152 2.43338 37246 ft 461 kts 172°
2026-05-01 11:05 41.22942 2.45472 37246 ft 461 kts 173°
2026-05-01 11:05 41.16729 2.47596 37247 ft 461 kts 173°
2026-05-01 11:06 41.10505 2.49729 37243 ft 461 kts 173°
2026-05-01 11:06 41.04290 2.51856 37241 ft 461 kts 173°
2026-05-01 11:07 40.98068 2.53978 36787 ft 462 kts 173°
2026-05-01 11:07 40.94955 2.55041 36227 ft 462 kts 173°
2026-05-01 11:07 40.91849 2.56103 35693 ft 461 kts 173°
2026-05-01 11:07 40.88742 2.57159 35142 ft 461 kts 173°
2026-05-01 11:08 40.85638 2.58211 34592 ft 461 kts 173°
2026-05-01 11:08 40.82530 2.59264 34000 ft 461 kts 173°
2026-05-01 11:08 40.76306 2.61377 32885 ft 462 kts 172°
2026-05-01 11:09 40.73185 2.62433 32334 ft 463 kts 172°
2026-05-01 11:09 40.70067 2.63489 31772 ft 463 kts 172°
2026-05-01 11:09 40.66944 2.64546 31243 ft 464 kts 172°
2026-05-01 11:10 40.60696 2.66658 30167 ft 463 kts 171°
2026-05-01 11:10 40.57584 2.67712 29620 ft 460 kts 171°
2026-05-01 11:10 40.54496 2.68763 29128 ft 456 kts 171°
2026-05-01 11:10 40.51432 2.69808 28630 ft 455 kts 169°
2026-05-01 11:11 40.48478 2.71365 28140 ft 461 kts 158°
2026-05-01 11:11 40.45676 2.73376 27631 ft 458 kts 156°
2026-05-01 11:11 40.42902 2.75391 27120 ft 454 kts 156°
2026-05-01 11:11 40.40155 2.77392 26615 ft 449 kts 156°
2026-05-01 11:12 40.37432 2.79373 26091 ft 446 kts 156°
2026-05-01 11:12 40.34730 2.81332 25555 ft 442 kts 156°
2026-05-01 11:12 40.32049 2.83270 25015 ft 438 kts 156°
2026-05-01 11:12 40.29388 2.85186 24477 ft 434 kts 155°
2026-05-01 11:13 40.26763 2.87077 23909 ft 428 kts 155°
2026-05-01 11:13 40.24165 2.88953 23240 ft 424 kts 155°
2026-05-01 11:13 40.21594 2.90805 22608 ft 420 kts 155°
2026-05-01 11:13 40.19045 2.92642 22010 ft 416 kts 155°
2026-05-01 11:14 40.16520 2.94462 21440 ft 413 kts 155°
2026-05-01 11:14 40.14009 2.96270 20749 ft 413 kts 155°
2026-05-01 11:14 40.11481 2.98087 20013 ft 423 kts 154°
2026-05-01 11:14 40.08801 2.99999 19285 ft 444 kts 154°
2026-05-01 11:15 40.05996 3.01528 18671 ft 431 kts 171°
2026-05-01 11:15 40.03101 3.01738 18543 ft 406 kts 188°
2026-05-01 11:15 40.00427 3.00928 18411 ft 387 kts 201°
2026-05-01 11:15 39.97930 2.99824 18274 ft 372 kts 201°
2026-05-01 11:16 39.95527 2.98760 18186 ft 356 kts 201°
2026-05-01 11:16 39.93240 2.97750 18208 ft 339 kts 201°
2026-05-01 11:16 39.91060 2.96793 18170 ft 324 kts 201°
2026-05-01 11:16 39.88946 2.95863 17902 ft 318 kts 201°
2026-05-01 11:17 39.86864 2.94936 17533 ft 315 kts 201°
2026-05-01 11:17 39.84863 2.93903 17157 ft 311 kts 210°
2026-05-01 11:17 39.83085 2.92297 16788 ft 306 kts 224°
2026-05-01 11:17 39.81689 2.90241 16375 ft 301 kts 236°
2026-05-01 11:18 39.80526 2.88019 15942 ft 301 kts 236°
2026-05-01 11:18 39.79352 2.85780 15600 ft 300 kts 236°
2026-05-01 11:18 39.78179 2.83545 15273 ft 298 kts 236°
2026-05-01 11:18 39.77014 2.81328 14929 ft 296 kts 236°
2026-05-01 11:19 39.75852 2.79126 14587 ft 295 kts 236°
2026-05-01 11:19 39.74682 2.76912 14032 ft 306 kts 236°
2026-05-01 11:19 39.73440 2.74561 13321 ft 321 kts 236°
2026-05-01 11:19 39.72165 2.72148 12616 ft 326 kts 236°
2026-05-01 11:20 39.70877 2.69702 12035 ft 328 kts 236°
2026-05-01 11:20 39.69599 2.67274 11620 ft 323 kts 236°
2026-05-01 11:20 39.68341 2.64889 11247 ft 317 kts 236°
2026-05-01 11:20 39.67101 2.62538 10799 ft 313 kts 236°
2026-05-01 11:21 39.65877 2.60219 10093 ft 310 kts 235°
2026-05-01 11:21 39.64661 2.57924 9277 ft 309 kts 235°
2026-05-01 11:21 39.63410 2.55669 8492 ft 306 kts 229°
2026-05-01 11:21 39.61712 2.54020 7980 ft 308 kts 209°
2026-05-01 11:22 39.59810 2.52747 7406 ft 308 kts 207°
2026-05-01 11:22 39.57905 2.51504 6674 ft 304 kts 207°
2026-05-01 11:22 39.55963 2.50485 5925 ft 300 kts 198°
2026-05-01 11:22 39.53981 2.49662 5176 ft 297 kts 197°
2026-05-01 11:23 39.52654 2.49116 4670 ft 295 kts 197°
2026-05-01 11:23 39.50728 2.48330 3894 ft 294 kts 196°
2026-05-01 11:23 39.48773 2.47536 3232 ft 290 kts 197°
2026-05-01 11:23 39.46907 2.46903 3049 ft 264 kts 182°
2026-05-01 11:24 39.45240 2.47439 3004 ft 234 kts 142°
2026-05-01 11:24 39.44369 2.49020 2998 ft 214 kts 101°
2026-05-01 11:24 39.45594 2.52027 3003 ft 202 kts 39°
2026-05-01 11:25 39.46448 2.53462 3030 ft 202 kts 60°
2026-05-01 11:25 39.47853 2.56621 2651 ft 201 kts 58°
2026-05-01 11:25 39.48583 2.58153 2397 ft 199 kts 58°
2026-05-01 11:26 39.49306 2.59677 2138 ft 198 kts 59°
2026-05-01 11:26 39.50719 2.62648 1607 ft 190 kts 59°
2026-05-01 11:26 39.51406 2.64095 1355 ft 187 kts 59°
2026-05-01 11:27 39.52073 2.65499 1093 ft 178 kts 59°
2026-05-01 11:27 39.52702 2.66825 835 ft 163 kts 59°
2026-05-01 11:27 39.53261 2.68004 622 ft 145 kts 59°
2026-05-01 11:27 39.53761 2.69058 423 ft 134 kts 58°
2026-05-01 11:28 39.54245 2.70059 234 ft 129 kts 58°
2026-05-01 11:28 39.54713 2.71051 87 ft 128 kts 60°
2026-05-01 11:28 39.55163 2.72004 30 ft 112 kts 58°
2026-05-01 11:29 39.55675 2.73091 30 ft 39 kts 59°
2026-05-01 11:29 39.55719 2.73325 30 ft 16 kts 88°
2026-05-01 11:29 39.55631 2.73448 30 ft 7 kts 258°
2026-05-01 11:30 39.55594 2.73370 30 ft 17 kts 236°
2026-05-01 11:30 39.55530 2.73234 30 ft 18 kts 239°
2026-05-01 11:30 39.55462 2.73091 30 ft 19 kts 238°
2026-05-01 11:30 39.55392 2.72982 30 ft 12 kts 193°
2026-05-01 11:31 39.55327 2.72946 30 ft 11 kts 238°
2026-05-01 11:31 39.55284 2.72855 30 ft 12 kts 239°
2026-05-01 11:31 39.55238 2.72756 30 ft 13 kts 239°
2026-05-01 11:31 39.55188 2.72651 30 ft 13 kts 238°
2026-05-01 11:32 39.55142 2.72608 30 ft 8 kts 196°
2026-05-01 11:32 39.55110 2.72598 30 ft 1 kts 193°